User: anonymous   Login
Location: Sternwarte_Laufen
(47.9344°N, 12.9346°E)
Time: 14:18:52
(UTC+01:00)
Language:

ISS - Orbit

View from above orbital plane
View from above orbital plane
View from above satellite
View from above satellite

Ground track
Ground track

The orbit data is extracted from the following two-line orbital elements,

1 25544U 98067A   18353.02973733  .00016717  00000-0  10270-3 0  9023
2 25544  51.6372 177.5636 0004861 158.6104 201.5252 15.54067346 27259
Epoch (UTC): 19 December 2018 00:42:49
Eccentricity: 0.0004861
inclination: 51.6372°
perigee height: 401 km
apogee height: 408 km
right ascension of ascending node: 177.5636°
argument of perigee: 158.6104°
revolutions per day: 15.54067346
mean anomaly at epoch: 201.5252°
orbit number at epoch: 2725

The dashed part of the orbit path shows where the satellite is in the earth's shadow,  

DLR